This demonstration page uses our WeatherBlox Daily Observations layout. Learn more.

Left ArrowRight Arrow

36.17497, -115.13722

Hourly Observations for March 5, 2021

Temp ( °F °C ) Dew Point ( °F °C ) Humidity (%) Winds ( mph kmh ) Pressure ( in mb ) Visibility ( mi km ) Precip ( " mm )
12:53 am 00:53 Clear 49 9.4 25 -3.9 39 39 WNW 6 9 30.29 1026 10 16 0.00 0.00
1:53 am 01:53 Clear 50 10 25 -3.9 38 38 NW 7 11 30.27 1025 10 16 0.00 0.00
2:53 am 02:53 Clear 48 8.9 25 -3.9 41 41 SSW 3 6 30.26 1025 10 16 0.00 0.00
3:53 am 03:53 Clear 47 8.3 24 -4.4 41 41 W 5 7 30.27 1025 10 16 0.00 0.00
4:53 am 04:53 Clear 51 10.6 22 -5.6 32 32 WNW 6 9 30.27 1025 10 16 0.00 0.00
5:53 am 05:53 Clear 46 7.8 23 -5 40 40 W 6 9 30.27 1025 10 16 0.00 0.00
6:53 am 06:53 Sunny 48 8.9 23 -5 37 37 NW 5 7 30.28 1026 10 16 0.00 0.00
7:53 am 07:53 Sunny 54 12.2 23 -5 30 30 NNW 3 6 30.29 1026 10 16 0.00 0.00
8:53 am 08:53 Sunny 58 14.4 23 -5 26 26 Calm 30.29 1026 10 16 0.00 0.00
9:53 am 09:53 Sunny 63 17.2 24 -4.4 23 23 Calm 30.26 1025 10 16 0.00 0.00
10:53 am 10:53 Sunny 67 19.4 24 -4.4 20 20 Calm 30.24 1024 10 16 0.00 0.00
11:53 am 11:53 Sunny 68 20 25 -3.9 20 20 Calm 30.20 1023 10 16 0.00 0.00
12:53 pm 12:53 Sunny 71 21.7 25 -3.9 18 18 SE 7 11 30.16 1021 10 16 0.00 0.00
1:53 pm 13:53 Sunny 73 22.8 21 -6.1 14 14 VRB 5 7 30.11 1020 10 16 0.00 0.00
2:53 pm 14:53 Sunny 73 22.8 19 -7.2 13 13 VRB 3 6 30.09 1019 10 16 0.00 0.00
3:53 pm 15:53 Sunny 76 24.4 16 -8.9 10 10 VRB 5 7 30.05 1018 10 16 0.00 0.00
4:53 pm 16:53 Sunny 74 23.3 17 -8.3 11 11 SSE 3 6 30.03 1017 10 16 0.00 0.00
5:53 pm 17:53 Clear 72 22.2 16 -8.9 12 12 Calm 30.02 1017 10 16 0.00 0.00
6:53 pm 18:53 Clear 68 20 18 -7.8 15 15 WSW 3 6 30.01 1016 10 16 0.00 0.00
7:53 pm 19:53 Clear 63 17.2 20 -6.7 19 19 NNW 6 9 30.00 1016 10 16 0.00 0.00
8:53 pm 20:53 Clear 62 16.7 18 -7.8 18 18 NNW 6 9 30.00 1016 10 16 0.00 0.00
9:53 pm 21:53 Clear 58 14.4 19 -7.2 22 22 W 5 7 30.00 1016 10 16 0.00 0.00
10:53 pm 22:53 Clear 57 13.9 18 -7.8 22 22 W 5 7 29.98 1015 10 16 0.00 0.00
11:53 pm 23:53 Clear 60 15.6 13 -10.6 16 16 W 7 11 29.97 1015 10 16 0.00 0.00

Powered by AerisWeather